Time,TemperatureF,DewpointF,PressureIn,WindDirection,WindDirectionDegrees,WindSpeedMPH,WindSpeedGustMPH,Humidity,HourlyPrecipIn,Conditions,Clouds,dailyrainin,SoftwareType,DateUTC
2013-10-14 00:06:00,34.0,33.0,30.08,NNW,330,7.0,7.0,97,-99.99,,,-99.99,,2013-10-14 06:06:00,
2013-10-14 00:16:00,34.0,33.0,30.09,WNW,300,7.0,7.0,97,-99.99,,,-99.99,,2013-10-14 06:16:00,
2013-10-14 00:21:00,34.0,33.0,30.09,NW,320,8.0,8.0,98,-99.99,,,-99.99,,2013-10-14 06:21:00,
2013-10-14 00:26:00,34.0,33.0,30.09,NW,320,7.0,9.0,99,-99.99,,,-99.99,,2013-10-14 06:26:00,
2013-10-14 00:31:00,34.0,34.0,30.09,NNW,330,7.0,9.0,99,-99.99,,,-99.99,,2013-10-14 06:31:00,
2013-10-14 00:36:00,34.0,34.0,30.09,NNW,340,5.0,9.0,99,-99.99,,,-99.99,,2013-10-14 06:36:00,
2013-10-14 00:46:00,34.0,34.0,30.09,North,10,3.0,6.0,99,-99.99,,,-99.99,,2013-10-14 06:46:00,
2013-10-14 00:56:00,34.0,34.0,30.09,NNW,330,8.0,8.0,99,-99.99,,,-99.99,,2013-10-14 06:56:00,
2013-10-14 01:06:00,34.0,34.0,30.10,NW,310,5.0,10.0,100,-99.99,,,-99.99,,2013-10-14 07:06:00,
2013-10-14 01:11:00,34.0,34.0,30.09,NNW,330,0.0,8.0,99,-99.99,,,-99.99,,2013-10-14 07:11:00,
2013-10-14 01:16:00,34.0,34.0,30.09,NNW,330,0.0,5.0,99,-99.99,,,-99.99,,2013-10-14 07:16:00,
2013-10-14 01:26:00,34.0,34.0,30.09,NNW,330,0.0,0.0,100,-99.99,,,-99.99,,2013-10-14 07:26:00,
2013-10-14 01:36:00,34.0,34.0,30.09,NNW,330,0.0,0.0,100,-99.99,,,-99.99,,2013-10-14 07:36:00,
2013-10-14 01:46:00,34.0,34.0,30.09,NNW,330,0.0,0.0,100,-99.99,,,-99.99,,2013-10-14 07:46:00,
2013-10-14 01:51:00,34.0,34.0,30.09,NNW,330,0.0,0.0,100,-99.99,,,-99.99,,2013-10-14 07:51:00,
2013-10-14 02:01:00,34.0,34.0,30.09,NNW,330,0.0,0.0,100,-99.99,,,-99.99,,2013-10-14 08:01:00,
2013-10-14 02:11:00,34.0,34.0,30.09,NNW,330,0.0,0.0,100,-99.99,,,-99.99,,2013-10-14 08:11:00,
2013-10-14 02:21:00,35.0,35.0,30.09,NNW,330,0.0,0.0,99,-99.99,,,-99.99,,2013-10-14 08:21:00,
2013-10-14 02:26:00,35.0,35.0,30.09,NNW,330,0.0,0.0,99,-99.99,,,-99.99,,2013-10-14 08:26:00,
2013-10-14 02:31:00,35.0,35.0,30.09,NNW,330,0.0,0.0,98,-99.99,,,-99.99,,2013-10-14 08:31:00,
2013-10-14 02:36:00,35.0,34.0,30.09,NNW,330,0.0,0.0,98,-99.99,,,-99.99,,2013-10-14 08:36:00,
2013-10-14 02:41:00,35.0,34.0,30.09,NNW,330,0.0,0.0,98,-99.99,,,-99.99,,2013-10-14 08:41:00,
2013-10-14 02:51:00,35.0,34.0,30.07,NNW,330,0.0,0.0,98,-99.99,,,-99.99,,2013-10-14 08:51:00,
2013-10-14 03:01:00,34.0,34.0,30.07,NNW,330,0.0,0.0,98,-99.99,,,-99.99,,2013-10-14 09:01:00,
2013-10-14 03:06:00,34.0,34.0,30.07,NNW,330,0.0,0.0,98,-99.99,,,-99.99,,2013-10-14 09:06:00,
2013-10-14 03:11:00,34.0,34.0,30.07,NNE,20,0.0,0.0,98,-99.99,,,-99.99,,2013-10-14 09:11:00,
2013-10-14 03:16:00,34.0,33.0,30.06,ENE,70,0.0,6.0,98,-99.99,,,-99.99,,2013-10-14 09:16:00,
2013-10-14 03:21:00,34.0,34.0,30.06,ENE,70,0.0,5.0,98,-99.99,,,-99.99,,2013-10-14 09:21:00,
2013-10-14 03:31:00,34.0,34.0,30.06,South,180,7.0,7.0,98,-99.99,,,-99.99,,2013-10-14 09:31:00,
2013-10-14 03:41:00,35.0,34.0,30.05,South,170,3.0,9.0,95,-99.99,,,-99.99,,2013-10-14 09:41:00,
2013-10-14 03:51:00,35.0,34.0,30.04,SE,130,0.0,4.0,95,-99.99,,,-99.99,,2013-10-14 09:51:00,
2013-10-14 03:56:00,34.0,33.0,30.04,SE,130,0.0,0.0,95,-99.99,,,-99.99,,2013-10-14 09:56:00,
2013-10-14 04:06:00,34.0,33.0,30.03,SE,130,0.0,0.0,95,-99.99,,,-99.99,,2013-10-14 10:06:00,
2013-10-14 04:16:00,34.0,33.0,30.03,SE,130,0.0,0.0,94,-99.99,,,-99.99,,2013-10-14 10:16:00,
2013-10-14 04:26:00,34.0,32.0,30.03,East,100,8.0,0.0,94,-99.99,,,-99.99,,2013-10-14 10:26:00,
2013-10-14 04:36:00,34.0,33.0,30.03,East,90,5.0,7.0,95,-99.99,,,-99.99,,2013-10-14 10:36:00,
2013-10-14 04:41:00,34.0,32.0,30.02,ENE,70,0.0,5.0,95,-99.99,,,-99.99,,2013-10-14 10:41:00,
2013-10-14 04:46:00,34.0,33.0,30.03,ESE,110,0.0,7.0,95,-99.99,,,-99.99,,2013-10-14 10:46:00,
2013-10-14 04:56:00,34.0,33.0,30.03,South,170,7.0,7.0,96,-99.99,,,-99.99,,2013-10-14 10:56:00,
2013-10-14 05:06:00,35.0,33.0,30.03,NE,40,0.0,9.0,95,-99.99,,,-99.99,,2013-10-14 11:06:00,
2013-10-14 05:16:00,35.0,33.0,30.04,NNW,330,16.0,16.0,93,-99.99,,,-99.99,,2013-10-14 11:16:00,
2013-10-14 05:21:00,36.0,33.0,30.06,WNW,300,17.0,20.0,89,-99.99,,,-99.99,,2013-10-14 11:21:00,
2013-10-14 05:26:00,36.0,34.0,30.06,West,270,8.0,26.0,92,-99.99,,,-99.99,,2013-10-14 11:26:00,
2013-10-14 05:36:00,35.0,33.0,30.07,WSW,250,7.0,12.0,94,-99.99,,,-99.99,,2013-10-14 11:36:00,
2013-10-14 05:46:00,34.0,33.0,30.08,NNE,20,6.0,7.0,96,-99.99,,,-99.99,,2013-10-14 11:46:00,
2013-10-14 05:56:00,34.0,33.0,30.09,NNW,330,3.0,11.0,98,-99.99,,,-99.99,,2013-10-14 11:56:00,
2013-10-14 06:01:00,33.0,33.0,30.09,NNW,330,3.0,11.0,99,-99.99,,,-99.99,,2013-10-14 12:01:00,
2013-10-14 06:06:00,33.0,33.0,30.09,West,270,6.0,7.0,99,-99.99,,,-99.99,,2013-10-14 12:06:00,
2013-10-14 06:11:00,33.0,33.0,30.10,WSW,250,0.0,12.0,99,-99.99,,,-99.99,,2013-10-14 12:11:00,
2013-10-14 06:21:00,33.0,33.0,30.10,NE,40,7.0,7.0,100,-99.99,,,-99.99,,2013-10-14 12:21:00,
2013-10-14 06:31:00,32.0,32.0,30.09,NNE,20,0.0,5.0,100,-99.99,,,-99.99,,2013-10-14 12:31:00,
2013-10-14 06:41:00,32.0,32.0,30.09,NNE,20,0.0,0.0,100,-99.99,,,-99.99,,2013-10-14 12:41:00,
2013-10-14 06:46:00,33.0,33.0,30.09,South,170,5.0,0.0,100,-99.99,,,-99.99,,2013-10-14 12:46:00,
2013-10-14 06:56:00,32.0,32.0,30.09,South,180,3.0,9.0,100,-99.99,,,-99.99,,2013-10-14 12:56:00,
2013-10-14 07:01:00,32.0,32.0,30.09,South,180,0.0,5.0,100,-99.99,,,-99.99,,2013-10-14 13:01:00,
2013-10-14 07:11:00,32.0,32.0,30.09,SSW,210,0.0,5.0,100,-99.99,,,-99.99,,2013-10-14 13:11:00,
2013-10-14 07:21:00,32.0,32.0,30.09,SE,140,0.0,0.0,100,-99.99,,,-99.99,,2013-10-14 13:21:00,
2013-10-14 07:26:00,32.0,32.0,30.09,SE,140,0.0,4.0,100,-99.99,,,-99.99,,2013-10-14 13:26:00,
2013-10-14 07:31:00,32.0,32.0,30.09,SE,140,0.0,0.0,100,-99.99,,,-99.99,,2013-10-14 13:31:00,
2013-10-14 07:41:00,32.0,32.0,30.09,SSE,150,0.0,3.0,100,-99.99,,,-99.99,,2013-10-14 13:41:00,
2013-10-14 07:46:00,32.0,32.0,30.09,SSE,150,0.0,0.0,100,-99.99,,,-99.99,,2013-10-14 13:46:00,
2013-10-14 07:51:00,32.0,32.0,30.10,SSE,150,0.0,0.0,100,-99.99,,,-99.99,,2013-10-14 13:51:00,
2013-10-14 08:01:00,33.0,33.0,30.11,SSW,200,4.0,0.0,100,-99.99,,,-99.99,,2013-10-14 14:01:00,
2013-10-14 08:06:00,33.0,33.0,30.10,SSE,160,8.0,8.0,100,-99.99,,,-99.99,,2013-10-14 14:06:00,
2013-10-14 08:11:00,32.0,32.0,30.11,ESE,110,3.0,8.0,100,-99.99,,,-99.99,,2013-10-14 14:11:00,
2013-10-14 08:21:00,32.0,32.0,30.11,SSE,160,7.0,7.0,100,-99.99,,,-99.99,,2013-10-14 14:21:00,
2013-10-14 08:26:00,32.0,32.0,30.10,South,180,4.0,9.0,100,-99.99,,,-99.99,,2013-10-14 14:26:00,
2013-10-14 08:36:00,32.0,32.0,30.11,ESE,110,7.0,10.0,100,-99.99,,,-99.99,,2013-10-14 14:36:00,
2013-10-14 08:46:00,32.0,32.0,30.11,East,100,0.0,9.0,99,-99.99,,,-99.99,,2013-10-14 14:46:00,
2013-10-14 08:51:00,32.0,32.0,30.11,SSE,150,5.0,7.0,100,-99.99,,,-99.99,,2013-10-14 14:51:00,
2013-10-14 08:56:00,32.0,32.0,30.11,South,180,7.0,8.0,100,-99.99,,,-99.99,,2013-10-14 14:56:00,
2013-10-14 09:01:00,33.0,32.0,30.11,South,170,6.0,10.0,100,-99.99,,,-99.99,,2013-10-14 15:01:00,
2013-10-14 09:06:00,33.0,32.0,30.12,SSE,160,6.0,8.0,100,-99.99,,,-99.99,,2013-10-14 15:06:00,
2013-10-14 09:11:00,33.0,33.0,30.12,South,170,10.0,10.0,100,-99.99,,,-99.99,,2013-10-14 15:11:00,
2013-10-14 09:16:00,33.0,33.0,30.12,SSE,150,10.0,11.0,100,-99.99,,,-99.99,,2013-10-14 15:16:00,
2013-10-14 09:26:00,33.0,33.0,30.12,South,170,7.0,10.0,100,-99.99,,,-99.99,,2013-10-14 15:26:00,
2013-10-14 09:36:00,34.0,34.0,30.12,South,170,6.0,8.0,100,-99.99,,,-99.99,,2013-10-14 15:36:00,
2013-10-14 09:41:00,34.0,34.0,30.12,South,170,6.0,7.0,100,-99.99,,,-99.99,,2013-10-14 15:41:00,
2013-10-14 09:46:00,34.0,34.0,30.12,SE,140,5.0,6.0,99,-99.99,,,-99.99,,2013-10-14 15:46:00,
2013-10-14 09:56:00,34.0,34.0,30.12,SSE,150,0.0,6.0,99,-99.99,,,-99.99,,2013-10-14 15:56:00,
2013-10-14 10:06:00,34.0,34.0,30.13,SE,140,0.0,7.0,99,-99.99,,,-99.99,,2013-10-14 16:06:00,
2013-10-14 10:16:00,33.0,33.0,30.14,SE,140,0.0,0.0,100,-99.99,,,-99.99,,2013-10-14 16:16:00,
2013-10-14 10:21:00,33.0,33.0,30.15,South,180,3.0,0.0,100,-99.99,,,-99.99,,2013-10-14 16:21:00,
2013-10-14 10:26:00,33.0,33.0,30.15,NNW,340,13.0,13.0,100,-99.99,,,-99.99,,2013-10-14 16:26:00,
2013-10-14 10:31:00,33.0,33.0,30.14,ENE,70,0.0,12.0,100,-99.99,,,-99.99,,2013-10-14 16:31:00,
2013-10-14 10:41:00,33.0,33.0,30.14,NNW,330,9.0,10.0,99,-99.99,,,-99.99,,2013-10-14 16:41:00,
2013-10-14 10:51:00,33.0,33.0,30.14,ENE,60,0.0,5.0,100,-99.99,,,-99.99,,2013-10-14 16:51:00,
2013-10-14 10:56:00,33.0,33.0,30.14,ENE,60,0.0,0.0,99,-99.99,,,-99.99,,2013-10-14 16:56:00,
2013-10-14 11:01:00,34.0,33.0,30.14,ENE,60,0.0,0.0,98,-99.99,,,-99.99,,2013-10-14 17:01:00,
2013-10-14 11:06:00,35.0,34.0,30.14,ENE,60,0.0,0.0,97,-99.99,,,-99.99,,2013-10-14 17:06:00,
2013-10-14 11:11:00,35.0,34.0,30.14,ENE,60,0.0,0.0,95,-99.99,,,-99.99,,2013-10-14 17:11:00,
2013-10-14 11:21:00,36.0,35.0,30.14,WSW,240,0.0,7.0,96,-99.99,,,-99.99,,2013-10-14 17:21:00,
2013-10-14 11:31:00,38.0,37.0,30.14,SSE,150,0.0,5.0,96,-99.99,,,-99.99,,2013-10-14 17:31:00,
2013-10-14 11:36:00,38.0,36.0,30.14,SE,140,0.0,4.0,94,-99.99,,,-99.99,,2013-10-14 17:36:00,
2013-10-14 11:41:00,38.0,37.0,30.14,SE,140,0.0,3.0,94,-99.99,,,-99.99,,2013-10-14 17:41:00,
2013-10-14 11:46:00,39.0,37.0,30.14,SE,140,0.0,0.0,94,-99.99,,,-99.99,,2013-10-14 17:46:00,
2013-10-14 11:51:00,39.0,38.0,30.14,SE,140,0.0,0.0,94,-99.99,,,-99.99,,2013-10-14 17:51:00,
2013-10-14 12:01:00,40.0,38.0,30.14,SE,140,0.0,0.0,93,-99.99,,,-99.99,,2013-10-14 18:01:00,
2013-10-14 12:11:00,40.0,38.0,30.14,SE,140,0.0,0.0,93,-99.99,,,-99.99,,2013-10-14 18:11:00,
2013-10-14 12:16:00,40.0,38.0,30.14,SSW,200,3.0,0.0,93,-99.99,,,-99.99,,2013-10-14 18:16:00,
2013-10-14 12:21:00,41.0,38.0,30.15,South,170,0.0,6.0,90,-99.99,,,-99.99,,2013-10-14 18:21:00,
2013-10-14 12:26:00,41.0,38.0,30.15,South,170,0.0,3.0,89,-99.99,,,-99.99,,2013-10-14 18:26:00,
2013-10-14 12:36:00,41.0,37.0,30.15,South,170,0.0,0.0,87,-99.99,,,-99.99,,2013-10-14 18:36:00,
2013-10-14 12:46:00,40.0,37.0,30.15,South,170,0.0,0.0,89,-99.99,,,-99.99,,2013-10-14 18:46:00,
2013-10-14 12:51:00,40.0,37.0,30.15,South,170,0.0,0.0,90,-99.99,,,-99.99,,2013-10-14 18:51:00,
2013-10-14 13:01:00,40.0,37.0,30.15,SSE,160,4.0,6.0,92,-99.99,,,-99.99,,2013-10-14 19:01:00,
2013-10-14 13:06:00,40.0,38.0,30.14,South,180,6.0,6.0,92,-99.99,,,-99.99,,2013-10-14 19:06:00,
2013-10-14 13:11:00,40.0,38.0,30.14,SSW,200,7.0,8.0,93,-99.99,,,-99.99,,2013-10-14 19:11:00,
2013-10-14 13:16:00,40.0,38.0,30.14,SSE,160,6.0,8.0,93,-99.99,,,-99.99,,2013-10-14 19:16:00,
2013-10-14 13:21:00,39.0,37.0,30.14,South,170,8.0,8.0,92,-99.99,,,-99.99,,2013-10-14 19:21:00,
2013-10-14 13:26:00,39.0,37.0,30.14,SSE,150,0.0,9.0,93,-99.99,,,-99.99,,2013-10-14 19:26:00,
2013-10-14 13:31:00,39.0,37.0,30.14,South,190,0.0,9.0,92,-99.99,,,-99.99,,2013-10-14 19:31:00,
2013-10-14 13:36:00,39.0,37.0,30.14,South,190,0.0,3.0,92,-99.99,,,-99.99,,2013-10-14 19:36:00,
2013-10-14 13:41:00,39.0,37.0,30.14,South,190,0.0,0.0,92,-99.99,,,-99.99,,2013-10-14 19:41:00,
2013-10-14 13:51:00,40.0,37.0,30.14,South,190,0.0,0.0,90,-99.99,,,-99.99,,2013-10-14 19:51:00,
2013-10-14 14:01:00,40.0,37.0,30.14,SE,130,0.0,6.0,89,-99.99,,,-99.99,,2013-10-14 20:01:00,
2013-10-14 14:11:00,40.0,36.0,30.14,North,350,10.0,10.0,85,-99.99,,,-99.99,,2013-10-14 20:11:00,
2013-10-14 14:21:00,40.0,35.0,30.14,WNW,290,0.0,9.0,83,-99.99,,,-99.99,,2013-10-14 20:21:00,
2013-10-14 14:31:00,41.0,35.0,30.14,NW,320,10.0,16.0,79,-99.99,,,-99.99,,2013-10-14 20:31:00,
2013-10-14 14:36:00,41.0,35.0,30.13,NNW,330,12.0,12.0,77,-99.99,,,-99.99,,2013-10-14 20:36:00,
2013-10-14 14:41:00,42.0,35.0,30.14,West,280,5.0,13.0,78,-99.99,,,-99.99,,2013-10-14 20:41:00,
2013-10-14 14:51:00,43.0,36.0,30.14,NE,50,9.0,15.0,76,-99.99,,,-99.99,,2013-10-14 20:51:00,
2013-10-14 14:56:00,42.0,35.0,30.14,North,10,7.0,10.0,74,-99.99,,,-99.99,,2013-10-14 20:56:00,
2013-10-14 15:06:00,43.0,34.0,30.14,NW,320,9.0,11.0,70,-99.99,,,-99.99,,2013-10-14 21:06:00,
2013-10-14 15:16:00,43.0,34.0,30.14,North,0,9.0,12.0,70,-99.99,,,-99.99,,2013-10-14 21:16:00,
2013-10-14 15:21:00,43.0,34.0,30.14,NW,310,9.0,11.0,70,-99.99,,,-99.99,,2013-10-14 21:21:00,
2013-10-14 15:26:00,43.0,32.0,30.15,West,280,10.0,13.0,67,-99.99,,,-99.99,,2013-10-14 21:26:00,
2013-10-14 15:31:00,42.0,34.0,30.16,NNW,330,9.0,15.0,72,-99.99,,,-99.99,,2013-10-14 21:31:00,
2013-10-14 15:36:00,41.0,34.0,30.16,WNW,300,9.0,18.0,75,-99.99,,,-99.99,,2013-10-14 21:36:00,
2013-10-14 15:41:00,41.0,34.0,30.15,North,0,5.0,11.0,78,-99.99,,,-99.99,,2013-10-14 21:41:00,
2013-10-14 15:46:00,41.0,34.0,30.16,NNW,340,9.0,9.0,78,-99.99,,,-99.99,,2013-10-14 21:46:00,
2013-10-14 15:51:00,41.0,35.0,30.16,NNW,330,6.0,10.0,77,-99.99,,,-99.99,,2013-10-14 21:51:00,
2013-10-14 16:01:00,40.0,36.0,30.17,NNE,30,7.0,20.0,85,-99.99,,,-99.99,,2013-10-14 22:01:00,
2013-10-14 16:11:00,38.0,35.0,30.18,NNE,30,5.0,14.0,87,-99.99,,,-99.99,,2013-10-14 22:11:00,
2013-10-14 16:16:00,38.0,35.0,30.18,NE,50,7.0,16.0,88,-99.99,,,-99.99,,2013-10-14 22:16:00,
2013-10-14 16:21:00,37.0,34.0,30.19,North,0,8.0,13.0,90,-99.99,,,-99.99,,2013-10-14 22:21:00,
2013-10-14 16:31:00,36.0,34.0,30.19,NE,40,3.0,11.0,93,-99.99,,,-99.99,,2013-10-14 22:31:00,
2013-10-14 16:36:00,36.0,34.0,30.20,NE,40,3.0,11.0,94,-99.99,,,-99.99,,2013-10-14 22:36:00,
2013-10-14 16:41:00,36.0,34.0,30.20,NNE,30,0.0,7.0,94,-99.99,,,-99.99,,2013-10-14 22:41:00,
2013-10-14 16:51:00,36.0,35.0,30.20,NW,310,9.0,9.0,94,-99.99,,,-99.99,,2013-10-14 22:51:00,
2013-10-14 16:56:00,36.0,34.0,30.20,NNE,20,6.0,14.0,94,-99.99,,,-99.99,,2013-10-14 22:56:00,
2013-10-14 17:06:00,35.0,34.0,30.21,NNE,30,0.0,8.0,97,-99.99,,,-99.99,,2013-10-14 23:06:00,
2013-10-14 17:16:00,35.0,34.0,30.21,NNE,30,0.0,0.0,98,-99.99,,,-99.99,,2013-10-14 23:16:00,
2013-10-14 17:21:00,35.0,34.0,30.21,NNE,30,0.0,0.0,98,-99.99,,,-99.99,,2013-10-14 23:21:00,
2013-10-14 17:26:00,35.0,34.0,30.21,NNE,30,0.0,0.0,97,-99.99,,,-99.99,,2013-10-14 23:26:00,
2013-10-14 17:36:00,35.0,34.0,30.21,NNE,30,0.0,0.0,97,-99.99,,,-99.99,,2013-10-14 23:36:00,
2013-10-14 17:46:00,35.0,34.0,30.21,NNE,30,0.0,0.0,97,-99.99,,,-99.99,,2013-10-14 23:46:00,
2013-10-14 17:51:00,35.0,34.0,30.21,NNE,30,0.0,0.0,97,-99.99,,,-99.99,,2013-10-14 23:51:00,
2013-10-14 17:56:00,35.0,34.0,30.22,NNE,30,0.0,0.0,97,-99.99,,,-99.99,,2013-10-14 23:56:00,
2013-10-14 18:01:00,35.0,34.0,30.22,NNE,30,0.0,0.0,97,-99.99,,,-99.99,,2013-10-15 00:01:00,
2013-10-14 18:11:00,35.0,34.0,30.22,NNE,30,0.0,0.0,97,-99.99,,,-99.99,,2013-10-15 00:11:00,
2013-10-14 18:21:00,35.0,34.0,30.22,NNE,30,0.0,0.0,97,-99.99,,,-99.99,,2013-10-15 00:21:00,
2013-10-14 18:26:00,34.0,34.0,30.22,NNE,30,0.0,0.0,97,-99.99,,,-99.99,,2013-10-15 00:26:00,
2013-10-14 18:36:00,35.0,34.0,30.23,NNE,30,0.0,0.0,98,-99.99,,,-99.99,,2013-10-15 00:36:00,
2013-10-14 18:41:00,35.0,34.0,30.23,NNE,30,0.0,0.0,98,-99.99,,,-99.99,,2013-10-15 00:41:00,
2013-10-14 18:51:00,34.0,34.0,30.23,NNE,30,0.0,0.0,98,-99.99,,,-99.99,,2013-10-15 00:51:00,
2013-10-14 18:56:00,34.0,34.0,30.23,NNE,30,0.0,0.0,98,-99.99,,,-99.99,,2013-10-15 00:56:00,
2013-10-14 19:01:00,34.0,33.0,30.23,NNE,30,0.0,0.0,98,-99.99,,,-99.99,,2013-10-15 01:01:00,
2013-10-14 19:11:00,33.0,33.0,30.23,NNE,30,0.0,0.0,99,-99.99,,,-99.99,,2013-10-15 01:11:00,
2013-10-14 19:16:00,33.0,33.0,30.23,NNE,30,0.0,0.0,100,-99.99,,,-99.99,,2013-10-15 01:16:00,
2013-10-14 19:26:00,33.0,33.0,30.23,NNE,30,0.0,0.0,99,-99.99,,,-99.99,,2013-10-15 01:26:00,
2013-10-14 19:31:00,33.0,33.0,30.24,NNE,30,0.0,0.0,99,-99.99,,,-99.99,,2013-10-15 01:31:00,
2013-10-14 19:36:00,33.0,33.0,30.23,NNE,30,0.0,0.0,99,-99.99,,,-99.99,,2013-10-15 01:36:00,
2013-10-14 19:46:00,33.0,32.0,30.24,NNE,30,0.0,0.0,99,-99.99,,,-99.99,,2013-10-15 01:46:00,
2013-10-14 19:56:00,32.0,32.0,30.24,NNE,30,0.0,0.0,100,-99.99,,,-99.99,,2013-10-15 01:56:00,
2013-10-14 20:06:00,32.0,32.0,30.24,NNE,30,0.0,0.0,100,-99.99,,,-99.99,,2013-10-15 02:06:00,
2013-10-14 20:11:00,32.0,32.0,30.24,NNE,30,0.0,0.0,100,-99.99,,,-99.99,,2013-10-15 02:11:00,
2013-10-14 20:16:00,32.0,32.0,30.24,NNE,30,0.0,0.0,100,-99.99,,,-99.99,,2013-10-15 02:16:00,
2013-10-14 20:26:00,32.0,32.0,30.24,NNE,30,0.0,0.0,100,-99.99,,,-99.99,,2013-10-15 02:26:00,
2013-10-14 20:36:00,32.0,32.0,30.24,NNE,30,0.0,0.0,100,-99.99,,,-99.99,,2013-10-15 02:36:00,
2013-10-14 20:46:00,32.0,32.0,30.24,NNE,30,0.0,0.0,100,-99.99,,,-99.99,,2013-10-15 02:46:00,
2013-10-14 20:51:00,31.0,31.0,30.24,NNE,30,0.0,0.0,100,-99.99,,,-99.99,,2013-10-15 02:51:00,
2013-10-14 20:56:00,31.0,31.0,30.24,NNE,30,0.0,0.0,100,-99.99,,,-99.99,,2013-10-15 02:56:00,
2013-10-14 21:06:00,31.0,31.0,30.25,NNE,30,0.0,0.0,100,-99.99,,,-99.99,,2013-10-15 03:06:00,
2013-10-14 21:11:00,31.0,31.0,30.25,NNE,30,0.0,0.0,100,-99.99,,,-99.99,,2013-10-15 03:11:00,
2013-10-14 21:21:00,31.0,31.0,30.25,NNE,30,0.0,0.0,100,-99.99,,,-99.99,,2013-10-15 03:21:00,
2013-10-14 21:26:00,31.0,31.0,30.25,NNE,30,0.0,0.0,100,-99.99,,,-99.99,,2013-10-15 03:26:00,
2013-10-14 21:36:00,31.0,31.0,30.25,NNE,30,0.0,0.0,100,-99.99,,,-99.99,,2013-10-15 03:36:00,
2013-10-14 21:41:00,31.0,31.0,30.25,NNE,30,0.0,0.0,100,-99.99,,,-99.99,,2013-10-15 03:41:00,
2013-10-14 21:46:00,31.0,31.0,30.25,NNE,30,0.0,0.0,100,-99.99,,,-99.99,,2013-10-15 03:46:00,
2013-10-14 21:56:00,31.0,31.0,30.25,NNE,30,0.0,0.0,100,-99.99,,,-99.99,,2013-10-15 03:56:00,
2013-10-14 22:01:00,31.0,30.0,30.26,NNE,30,0.0,0.0,99,-99.99,,,-99.99,,2013-10-15 04:01:00,
2013-10-14 22:06:00,30.0,30.0,30.26,NNE,30,0.0,0.0,99,-99.99,,,-99.99,,2013-10-15 04:06:00,
2013-10-14 22:11:00,30.0,30.0,30.25,NNE,30,0.0,0.0,99,-99.99,,,-99.99,,2013-10-15 04:11:00,
2013-10-14 22:21:00,30.0,30.0,30.26,NNE,30,0.0,0.0,100,-99.99,,,-99.99,,2013-10-15 04:21:00,
2013-10-14 22:31:00,30.0,30.0,30.26,NNE,30,0.0,0.0,100,-99.99,,,-99.99,,2013-10-15 04:31:00,
2013-10-14 22:36:00,30.0,30.0,30.25,NNE,30,0.0,0.0,100,-99.99,,,-99.99,,2013-10-15 04:36:00,
2013-10-14 22:41:00,30.0,30.0,30.25,NNE,30,0.0,0.0,100,-99.99,,,-99.99,,2013-10-15 04:41:00,
2013-10-14 22:46:00,30.0,30.0,30.25,NNE,30,0.0,0.0,100,-99.99,,,-99.99,,2013-10-15 04:46:00,
2013-10-14 22:51:00,30.0,30.0,30.25,NNE,30,0.0,0.0,100,-99.99,,,-99.99,,2013-10-15 04:51:00,
2013-10-14 23:01:00,29.0,29.0,30.25,NNE,30,0.0,0.0,100,-99.99,,,-99.99,,2013-10-15 05:01:00,
2013-10-14 23:11:00,29.0,29.0,30.25,NNE,30,0.0,0.0,100,-99.99,,,-99.99,,2013-10-15 05:11:00,
2013-10-14 23:21:00,29.0,29.0,30.25,NNE,30,0.0,0.0,100,-99.99,,,-99.99,,2013-10-15 05:21:00,
2013-10-14 23:26:00,29.0,29.0,30.25,NNE,30,0.0,0.0,100,-99.99,,,-99.99,,2013-10-15 05:26:00,
2013-10-14 23:31:00,29.0,29.0,30.25,NNE,30,0.0,0.0,100,-99.99,,,-99.99,,2013-10-15 05:31:00,
2013-10-14 23:41:00,29.0,29.0,30.25,NNE,30,0.0,0.0,100,-99.99,,,-99.99,,2013-10-15 05:41:00,
2013-10-14 23:51:00,29.0,29.0,30.25,NNE,30,0.0,0.0,100,-99.99,,,-99.99,,2013-10-15 05:51:00,
2013-10-14 23:56:00,28.0,28.0,30.25,NNE,30,0.0,0.0,100,-99.99,,,-99.99,,2013-10-15 05:56:00,